Location: Home
(42.5358°N, 72.7383°W)
Time: 19:58:55
(UTC-05:00)

Explorer 7 - Pass Details

Date: 06 December 2021
Orbit: 483 x 674 km, 50.3° (Epoch: 23 January)

Event Time Altitude Azimuth Distance (km) Brightness Sun altitude
Rises 08:30:55 0° 298° (WNW) 2,722 9.8 11.4°
Reaches altitude 10° 08:33:24 10° 308° (NW) 1,793 8.9 11.7°
Maximum altitude 08:37:03 31° 12° (NNE) 923 7.8 12.2°
Drops below altitude 10° 08:40:31 10° 77° (ENE) 1,708 9.8 12.6°
Sets 08:42:50 0° 88° (E) 2,570 10.9 12.9°
